Weather History for Peru, IN

Change the Weather History Date:

Tuesday, February 28, 2012

  Actual Average Record
Temperature  
Mean Temperature 35 °F -  
Max Temperature 47 °F 39 °F 59 °F (1998)
Min Temperature 23 °F 25 °F 1 °F (2008)
Degree Days  
Heating Degree Days 30    
Moisture  
Dew Point 29 °F    
Average Humidity 76    
Maximum Humidity 100    
Minimum Humidity 37    
Precipitation  
Precipitation 0.00 in - - ()
Sea Level Pressure  
Sea Level Pressure 30.27 in    
Wind  
Wind Speed 8 mph (ESE)    
Max Wind Speed 15 mph    
Max Gust Speed -    
Visibility 10 miles    
Events Rain    
Averages and records for this station are not official NWS values.
T = Trace of Precipitation, MM = Missing Value Source: NWS Daily Summary

Daily Weather History Graph

Daily Weather History Graph

Search for Another Location

Airport:

Trip Planner

Search our weather history database for the weather conditions in past years. The results will help you decide how hot, cold, wet, or windy it might be!

Date:

Astronomy

Feb. 28, 2012 Rise Set
Actual Time 7:20 AM EST 6:34 PM EST
Civil Twilight 6:53 AM EST 7:01 PM EST
Nautical Twilight 6:21 AM EST 7:33 PM EST
Astronomical Twilight 5:50 AM EST 8:05 PM EST
Moon 10:25 AM EST (2/28) 12:28 AM EST (2/28)
Length of Visible Light 12h 08m
Length of Day
11h 13m
Waxing Crescent, 37% of the Moon is Illuminated
Feb 28
Waxing Crescent
Feb 29
First Quarter
Mar 8
Full
Mar 14
Last Quarter
Mar 22
New

Hourly Weather History & Observations

Time (EST) Temp. Windchill Dew Point Humidity Pressure Visibility Wind Dir Wind Speed Gust Speed Precip Events Conditions
12:55 AM 25.3 °F 19.7 °F 25.3 °F 100% 30.50 in 10.0 mi East 4.6 mph - N/A   Clear
1:55 AM 26.4 °F 19.8 °F 26.2 °F 99% 30.50 in 10.0 mi East 5.8 mph - N/A   Clear
2:55 AM 24.8 °F 17.9 °F 24.8 °F 100% 30.50 in 10.0 mi ESE 5.8 mph - N/A   Clear
3:55 AM 24.8 °F 19.1 °F 24.8 °F 100% 30.48 in 10.0 mi ESE 4.6 mph - N/A   Clear
4:55 AM 24.6 °F 18.8 °F 24.6 °F 100% 30.48 in 10.0 mi East 4.6 mph - N/A   Scattered Clouds
5:55 AM 23.5 °F 16.4 °F 23.5 °F 100% 30.48 in 10.0 mi ESE 5.8 mph - N/A   Mostly Cloudy
6:55 AM 23.5 °F 15.4 °F 23.5 °F 100% 30.48 in 10.0 mi ESE 6.9 mph - N/A   Mostly Cloudy
7:55 AM 25.9 °F 20.3 °F 25.9 °F 100% 30.49 in 10.0 mi East 4.6 mph - N/A   Overcast
8:55 AM 28.8 °F 20.2 °F 28.8 °F 100% 30.49 in 10.0 mi ESE 9.2 mph - N/A   Overcast
9:55 AM 32.0 °F 23.0 °F 32.0 °F 100% 30.46 in 10.0 mi SE 11.5 mph - N/A   Mostly Cloudy
10:31 AM 33.8 °F 23.9 °F 33.8 °F 100% 30.39 in 10.0 mi ESE 15.0 mph - N/A   Mostly Cloudy
10:55 AM 35.8 °F 26.9 °F 32.7 °F 89% 30.44 in 10.0 mi SE 13.8 mph - N/A   Overcast
11:55 AM 37.2 °F 29.6 °F 32.5 °F 83% 30.40 in 10.0 mi SE 11.5 mph - N/A   Scattered Clouds
12:55 PM 39.6 °F 32.5 °F 32.7 °F 76% 30.37 in 10.0 mi SE 11.5 mph - N/A   Overcast
1:55 PM 44.8 °F 39.4 °F 26.4 °F 49% 30.31 in 10.0 mi SE 10.4 mph - N/A   Scattered Clouds
2:55 PM 47.8 °F - 22.5 °F 37% 30.27 in 10.0 mi ESE 8.1 mph - N/A   Mostly Cloudy
3:55 PM 47.7 °F - 24.1 °F 40% 30.23 in 10.0 mi ESE 11.5 mph - N/A   Overcast
4:55 PM 46.9 °F - 26.8 °F 45% 30.21 in 10.0 mi East 10.4 mph - N/A   Overcast
5:55 PM 45.9 °F 40.8 °F 25.5 °F 45% 30.19 in 10.0 mi East 10.4 mph - N/A   Overcast
6:55 PM 44.8 °F 39.0 °F 28.6 °F 53% 30.18 in 10.0 mi East 11.5 mph - N/A   Overcast
7:55 PM 43.9 °F 37.9 °F 28.9 °F 56% 30.16 in 10.0 mi East 11.5 mph - N/A   Overcast
8:55 PM 43.5 °F 37.1 °F 30.4 °F 60% 30.11 in 10.0 mi East 12.7 mph - N/A   Overcast
9:49 PM 44.6 °F 38.8 °F 30.2 °F 57% 30.07 in 10.0 mi East 11.5 mph - N/A Rain Light Rain
9:55 PM 43.9 °F 37.9 °F 32.7 °F 65% 30.06 in 10.0 mi East 11.5 mph - 0.00 in Rain Light Rain
10:55 PM 43.5 °F 36.7 °F 34.9 °F 72% 30.01 in 10.0 mi East 13.8 mph - 0.00 in   Light Drizzle
10:58 PM 42.8 °F 35.8 °F 33.8 °F 70% 30.00 in 10.0 mi East 13.8 mph - N/A   Overcast
11:09 PM 44.6 °F 38.8 °F 33.8 °F 66% 29.99 in 10.0 mi East 11.5 mph - N/A Rain Light Rain
11:46 PM 42.8 °F 37.0 °F 35.6 °F 76% 29.95 in 10.0 mi East 10.4 mph - N/A   Overcast
11:55 PM 43.2 °F 36.2 °F 36.3 °F 77% 29.93 in 10.0 mi East 13.8 mph - 0.00 in   Overcast
11:56 PM 42.8 °F 35.8 °F 35.6 °F 76% 29.93 in 10.0 mi East 13.8 mph - N/A   Light Drizzle